Flag for Germany Weather past 2 weeks in Rheine, North Rhine-Westphalia, Germany

Now
43 °F

Scattered clouds.


Feels Like: 34 °F
Forecast: 39 / 46 °F
Wind: 18 mph from West

Location: Rheine-Bentlage

Current Time: Apr 1, 2015 at 12:04:35 PM

Latest Report: Apr 1, 2015 at 11:20 AM


Visibility: N/A

Pressure: 29.92 "Hg

Humidity: 71%

Dew point: 34 °F

Location of RheineLocation

Historic Weather in Rheine — Graph

°F

Rheine temperature yesterday

Maximum temperature yesterday: 50 °F (at 6:20 AM)
Minimum temperature yesterday: 39 °F (at 1:20 AM)
Average temperature yesterday: 45 °F

Past Weeks' High & Low Weather Summary

 TemperatureHumidityPressure
High61 °F (Mar 17, 3:20 PM)100% (Mar 18, 2:20 AM)30.39 "Hg (Mar 18, 2:20 AM)
Low28 °F (Mar 20, 5:20 AM)47% (Mar 24, 2:20 PM)29.09 "Hg (Mar 31, 6:20 AM)
Average43 °F80%29.92 "Hg
* Reported Mar 17 9:20 AM — Apr 1 10:20 AM, Rheine, Weather by CustomWeather, © 2015

Note: Actual official high and low records may vary slightly from our data, if they occured in-between our weather recording intervals... More about our weather records

Advertising

Rheine weather history for previous 24 hours

 ConditionsComfort  
Time TempWeatherWind HumidityBarometerVisibility
10:20 AM
Wed, Apr 1
43 °FPartly sunny.17 mph76%29.92 "HgN/A
9:20 AM39 °FPassing clouds.15 mph87%29.89 "HgN/A
8:20 AM37 °FBroken clouds.15 mph87%29.89 "HgN/A
7:20 AM37 °FSprinkles. Partly cloudy.16 mph87%29.83 "HgN/A
6:20 AM37 °FPartly cloudy.17 mph87%29.80 "HgN/A
5:20 AM37 °FPassing clouds.20 mph87%29.77 "HgN/A
4:20 AM37 °FChilly.20 mph87%29.77 "HgN/A
3:20 AM37 °FChilly.13 mph87%29.74 "HgN/A
2:20 AM41 °FQuite cool.17 mph70%29.71 "HgN/A
1:20 AM41 °FQuite cool.14 mph70%29.71 "HgN/A
12:20 AM39 °FChilly.24 mph81%29.71 "HgN/A
11:20 PM
Tue, Mar 31
41 °FQuite cool.15 mph76%29.68 "HgN/A
10:20 PM43 °FQuite cool.16 mph71%29.68 "HgN/A
9:20 PM43 °FQuite cool.24 mph57%29.65 "HgN/A
8:20 PM43 °FQuite cool.20 mph71%29.65 "HgN/A
7:20 PM43 °FQuite cool.17 mph71%29.62 "HgN/A
6:20 PM48 °FCool.20 mph58%29.56 "HgN/A
5:20 PM48 °FCool.29 mph50%29.56 "HgN/A
4:20 PM46 °FCool.31 mph62%29.53 "HgN/A
3:20 PM48 °FPartly sunny.33 mph58%29.47 "HgN/A
2:20 PM46 °FPartly sunny.33 mph66%29.42 "HgN/A
1:20 PM46 °FBroken clouds.31 mph76%29.36 "HgN/A
12:20 PM45 °FSprinkles. Broken clouds.24 mph87%29.33 "Hg5 mi
Weather by CustomWeather, © 2015

See weather overviewHow to use our weather pages